Location: Ethel Rock
(53.4667°N, 4.5667°W)
Time: 05:04:36
(UTC+00:00)

COSMO-SKYMED 1 - Pass Details

Date: 24 October 2020
Orbit: 621 x 623 km, 97.9° (Epoch: 25 November)

Event Time Altitude Azimuth Distance (km) Brightness Sun altitude
Rises 05:25:28 0° 169° (S) 2,895 6.1 -15.0°
Reaches altitude 10° 05:27:39 10° 171° (S) 1,993 5.3 -14.7°
Maximum altitude 05:31:59 73° 257° (WSW) 658 2.5 -14.1°
Drops below altitude 10° 05:36:22 10° 342° (NNW) 2,009 5.0 -13.4°
Sets 05:38:34 0° 345° (NNW) 2,920 5.8 -13.1°
